University AP, Davis, CA, CA

11:35 AM PST on December 08, 2019 (GMT -0800)
University AP, Davis, CA

Weather History for KEDU - October, 2019

Change the Weather History Date:

Wednesday, October 30, 2019

  Actual Average (KSMF) Record (KSMF)
Temperature  
Mean Temperature 57 °F -  
Max Temperature 68 °F 69 °F 84 °F (2015)
Min Temperature 44 °F 46 °F 35 °F (1948)
Degree Days  
Heating Degree Days 8    
Growing Degree Days 7 (Base 50)    
Moisture  
Dew Point 7 °F    
Average Humidity 15    
Maximum Humidity 32    
Minimum Humidity 8    
Precipitation  
Precipitation 0.00 in - - ()
Sea Level Pressure  
Sea Level Pressure 30.16 in    
Wind  
Wind Speed 10 mph ()    
Max Wind Speed 17 mph    
Max Gust Speed 25 mph    
Visibility 10.0 miles    
Events      
Averages and records for this station are not official NWS values.
T = Trace of Precipitation, MM = Missing Value Source: Averaged Metar Reports

Daily Weather History Graph

Daily Weather History Graph

Search for Another Location

Airport or City:

Astronomy

Oct. 30, 2019 Rise Set
Actual Time 7:31 AM PDT 6:09 PM PDT
Civil Twilight 7:04 AM PDT 6:36 PM PDT
Nautical Twilight 6:32 AM PDT 7:08 PM PDT
Astronomical Twilight 6:01 AM PDT 7:39 PM PDT
Moon 10:19 AM PDT (10/30) 8:23 PM PDT (10/30)
Length of Visible Light 11h 32m
Length of Day
10h 38m
Waxing Crescent, 9% of the Moon is Illuminated
Oct 30
Waxing Crescent
Nov 4
First Quarter
Nov 12
Full
Nov 19
Last Quarter
Nov 26
New

Hourly Weather History & Observations

Time (PDT) Temp. Dew Point Humidity Pressure Visibility Wind Dir Wind Speed Gust Speed Precip Events Conditions
12:15 AM 53.6 °F 1.4 °F 12% 30.01 in 10.0 mi North 16.1 mph 25.3 mph N/A   Clear
12:35 AM 53.6 °F -0.4 °F 11% 30.03 in 10.0 mi North 13.8 mph 19.6 mph N/A   Clear
12:55 AM 53.6 °F -0.4 °F 11% 30.03 in 10.0 mi NNW 16.1 mph 19.6 mph N/A   Clear
1:15 AM 53.6 °F -0.4 °F 11% 30.04 in 10.0 mi NNW 16.1 mph 21.9 mph N/A   Clear
1:35 AM 53.6 °F -0.4 °F 11% 30.05 in 10.0 mi NNW 13.8 mph 21.9 mph N/A   Clear
1:55 AM 53.6 °F -0.4 °F 11% 30.05 in 10.0 mi NNW 15.0 mph 19.6 mph N/A   Clear
2:10 AM 53.6 °F -0.4 °F 11% 30.06 in 10.0 mi NNW 13.8 mph 20.7 mph N/A   Clear
2:35 AM 53.6 °F -0.4 °F 11% 30.06 in 10.0 mi North 12.7 mph 20.7 mph N/A   Clear
2:55 AM 51.8 °F -0.4 °F 12% 30.07 in 10.0 mi North 15.0 mph 20.7 mph N/A   Clear
3:15 AM 51.8 °F -0.4 °F 12% 30.07 in 10.0 mi North 12.7 mph 18.4 mph N/A   Clear
3:35 AM 51.8 °F -0.4 °F 12% 30.08 in 10.0 mi North 13.8 mph 20.7 mph N/A   Clear
3:55 AM 51.8 °F -2.2 °F 11% 30.08 in 10.0 mi North 12.7 mph 19.6 mph N/A   Clear
4:15 AM 50.0 °F -0.4 °F 13% 30.08 in 10.0 mi North 11.5 mph 20.7 mph N/A   Clear
4:35 AM 50.0 °F -0.4 °F 13% 30.09 in 10.0 mi North 13.8 mph 18.4 mph N/A   Clear
4:55 AM 50.0 °F -0.4 °F 13% 30.09 in 10.0 mi North 12.7 mph - N/A   Clear
5:15 AM 50.0 °F -0.4 °F 13% 30.10 in 10.0 mi North 11.5 mph 19.6 mph N/A   Clear
5:35 AM 50.0 °F -0.4 °F 13% 30.10 in 10.0 mi North 12.7 mph 18.4 mph N/A   Clear
5:55 AM 48.2 °F -0.4 °F 13% 30.11 in 10.0 mi North 11.5 mph - N/A   Clear
6:35 AM 48.2 °F -0.4 °F 13% 30.12 in 10.0 mi North 11.5 mph 17.3 mph N/A   Clear
6:55 AM 48.2 °F -0.4 °F 13% 30.13 in 10.0 mi North 10.4 mph - N/A   Clear
7:15 AM 48.2 °F -0.4 °F 13% 30.13 in 10.0 mi North 11.5 mph 17.3 mph N/A   Clear
7:55 AM 48.2 °F -0.4 °F 13% 30.15 in 10.0 mi North 11.5 mph 17.3 mph N/A   Clear
8:15 AM 50.0 °F -0.4 °F 13% 30.15 in 10.0 mi North 11.5 mph 19.6 mph N/A   Clear
8:35 AM 50.0 °F -0.4 °F 13% 30.17 in 10.0 mi North 12.7 mph 18.4 mph N/A   Clear
8:55 AM 51.8 °F -0.4 °F 12% 30.17 in 10.0 mi North 11.5 mph - N/A   Clear
9:15 AM 53.6 °F -0.4 °F 11% 30.18 in 10.0 mi North 16.1 mph 21.9 mph N/A   Clear
9:35 AM 53.6 °F -0.4 °F 11% 30.19 in 10.0 mi North 12.7 mph 18.4 mph N/A   Clear
9:55 AM 55.4 °F -0.4 °F 10% 30.19 in 10.0 mi North 17.3 mph 21.9 mph N/A   Clear
10:15 AM 55.4 °F -0.4 °F 10% 30.19 in 10.0 mi North 13.8 mph 21.9 mph N/A   Clear
10:35 AM 57.2 °F -0.4 °F 10% 30.20 in 10.0 mi North 11.5 mph - N/A   Clear
10:55 AM 59.0 °F 1.4 °F 10% 30.20 in 10.0 mi North 11.5 mph 18.4 mph N/A   Clear
11:10 AM 59.0 °F 1.4 °F 10% 30.21 in 10.0 mi North 9.2 mph - N/A   Clear
11:35 AM 60.8 °F 1.4 °F 9% 30.21 in 10.0 mi NNE 11.5 mph - N/A   Clear
11:55 AM 60.8 °F 1.4 °F 9% 30.21 in 10.0 mi North 12.7 mph - N/A   Clear
12:15 PM 62.6 °F -0.4 °F 8% 30.21 in 10.0 mi North 12.7 mph 19.6 mph N/A   Clear
12:35 PM 62.6 °F 1.4 °F 9% 30.21 in 10.0 mi North 10.4 mph - N/A   Clear
12:55 PM 62.6 °F 1.4 °F 9% 30.20 in 10.0 mi North 11.5 mph - N/A   Clear
1:15 PM 64.4 °F 3.2 °F 9% 30.20 in 10.0 mi North 11.5 mph 16.1 mph N/A   Clear
1:35 PM 64.4 °F 3.2 °F 9% 30.19 in 10.0 mi NNE 10.4 mph 16.1 mph N/A   Clear
1:55 PM 66.2 °F 5.0 °F 9% 30.19 in 10.0 mi NE 9.2 mph - N/A   Clear
2:15 PM 66.2 °F 6.8 °F 10% 30.18 in 10.0 mi NNE 8.1 mph - N/A   Clear
2:35 PM 66.2 °F 8.6 °F 11% 30.18 in 10.0 mi NNE 8.1 mph - N/A   Clear
2:55 PM 66.2 °F 8.6 °F 11% 30.18 in 10.0 mi ENE 5.8 mph - N/A   Clear
3:15 PM 66.2 °F 10.4 °F 11% 30.18 in 10.0 mi NNE 6.9 mph - N/A   Clear
3:35 PM 66.2 °F 10.4 °F 11% 30.18 in 10.0 mi NNE 3.5 mph - N/A   Clear
3:55 PM 66.2 °F 12.2 °F 12% 30.18 in 10.0 mi NNW 3.5 mph - N/A   Clear
4:15 PM 68.0 °F 10.4 °F 11% 30.18 in 10.0 mi NE 4.6 mph - N/A   Clear
4:35 PM 66.2 °F 12.2 °F 12% 30.18 in 10.0 mi NNE 5.8 mph - N/A   Clear
4:55 PM 66.2 °F 12.2 °F 12% 30.18 in 10.0 mi NNE 6.9 mph - N/A   Clear
5:15 PM 66.2 °F 14.0 °F 13% 30.18 in 10.0 mi NNE 5.8 mph - N/A   Clear
5:35 PM 66.2 °F 14.0 °F 13% 30.19 in 10.0 mi NNE 4.6 mph - N/A   Clear
5:55 PM 64.4 °F 17.6 °F 16% 30.19 in 10.0 mi Calm Calm - N/A   Clear
6:15 PM 62.6 °F 19.4 °F 19% 30.19 in 10.0 mi Calm Calm - N/A   Clear
6:35 PM 57.2 °F 23.0 °F 27% 30.20 in 10.0 mi Calm Calm - N/A   Clear
6:55 PM 57.2 °F 19.4 °F 23% 30.20 in 10.0 mi Calm Calm - N/A   Clear
7:15 PM 55.4 °F 23.0 °F 29% 30.20 in 10.0 mi Calm Calm - N/A   Clear
7:35 PM 53.6 °F 21.2 °F 28% 30.20 in 10.0 mi Calm Calm - N/A   Clear
7:55 PM 53.6 °F 19.4 °F 26% 30.20 in 10.0 mi NW 4.6 mph - N/A   Clear
8:15 PM 53.6 °F 19.4 °F 26% 30.21 in 10.0 mi WNW 3.5 mph - N/A   Clear
8:35 PM 53.6 °F 17.6 °F 24% 30.21 in 10.0 mi NW 3.5 mph - N/A   Clear
8:55 PM 53.6 °F 17.6 °F 24% 30.21 in 10.0 mi NW 5.8 mph - N/A   Clear
9:15 PM 50.0 °F 17.6 °F 28% 30.22 in 10.0 mi NW 3.5 mph - N/A   Clear
9:35 PM 48.2 °F 17.6 °F 30% 30.22 in 10.0 mi Calm Calm - N/A   Clear
9:55 PM 50.0 °F 15.8 °F 26% 30.23 in 10.0 mi Calm Calm - N/A   Clear
10:15 PM 48.2 °F 17.6 °F 30% 30.24 in 10.0 mi Calm Calm - N/A   Clear
10:35 PM 48.2 °F 15.8 °F 27% 30.24 in 10.0 mi Calm Calm - N/A   Clear
10:55 PM 46.4 °F 17.6 °F 32% 30.24 in 10.0 mi Calm Calm - N/A   Clear
11:15 PM 46.4 °F 15.8 °F 29% 30.25 in 10.0 mi Calm Calm - N/A   Clear
11:35 PM 46.4 °F 15.8 °F 29% 30.25 in 10.0 mi Calm Calm - N/A   Clear
11:55 PM 44.6 °F 15.8 °F 31% 30.25 in 10.0 mi Calm Calm - N/A   Clear